Weather History for Anchorage Merrill, AK

Change the Weather History Date:

Saturday, November 19, 2011

  Actual Average Record
Temperature  
Mean Temperature -2 °F -  
Max Temperature 3 °F 26 °F 43 °F (2004)
Min Temperature -7 °F 16 °F -8 °F (2013)
Degree Days  
Heating Degree Days 67    
Moisture  
Dew Point -7 °F    
Average Humidity 79    
Maximum Humidity 85    
Minimum Humidity 72    
Precipitation  
Precipitation 0.00 in - - ()
Sea Level Pressure  
Sea Level Pressure 29.90 in    
Wind  
Wind Speed 2 mph (ENE)    
Max Wind Speed 6 mph    
Max Gust Speed -    
Visibility 9 miles    
Events      
Averages and records for this station are not official NWS values.
T = Trace of Precipitation, MM = Missing Value Source: NWS Daily Summary

Daily Weather History Graph

Daily Weather History Graph

Search for Another Location

Airport:

Trip Planner

Search our weather history database for the weather conditions in past years. The results will help you decide how hot, cold, wet, or windy it might be!

Date:

Astronomy

Nov. 19, 2011 Rise Set
Actual Time 9:15 AM AKST 4:13 PM AKST
Civil Twilight 8:22 AM AKST 5:06 PM AKST
Nautical Twilight 7:27 AM AKST 6:01 PM AKST
Astronomical Twilight 6:36 AM AKST 6:52 PM AKST
Moon 1:04 AM AKST (11/19) 2:07 PM AKST (11/19)
Length of Visible Light 8h 43m
Length of Day
6h 57m
Last Quarter, 36% of the Moon is Illuminated
Nov 19
Last Quarter
Nov 24
New
Dec 2
First Quarter
Dec 10
Full
Dec 17
Last Quarter

Hourly Weather History & Observations

Time (AKST) Temp. Windchill Dew Point Humidity Pressure Visibility Wind Dir Wind Speed Gust Speed Precip Events Conditions
12:53 AM -6.0 °F - -11.0 °F 79% 30.11 in 10.0 mi Calm Calm - N/A   Clear
1:53 AM -6.0 °F - -11.0 °F 79% 30.12 in 10.0 mi Calm Calm - N/A   Clear
3:53 AM -6.0 °F -16.9 °F -13.0 °F 72% 30.12 in 10.0 mi East 4.6 mph - N/A   Clear
4:53 AM -7.1 °F - -11.9 °F 79% 30.12 in 10.0 mi Calm Calm - N/A   Clear
5:53 AM -7.1 °F - -13.0 °F 75% 30.09 in 10.0 mi Calm Calm - N/A   Clear
6:53 AM -6.0 °F -14.7 °F -9.9 °F 83% 30.07 in 10.0 mi NE 3.5 mph - N/A   Clear
7:53 AM -2.9 °F -15.0 °F -9.9 °F 72% 30.02 in 10.0 mi East 5.8 mph - N/A   Clear
8:53 AM -6.0 °F - -11.9 °F 75% 30.02 in 10.0 mi Calm Calm - N/A   Clear
9:53 AM -6.0 °F - -11.0 °F 79% 30.00 in 10.0 mi Calm Calm - N/A   Scattered Clouds
10:03 AM -7.6 °F -18.8 °F -11.2 °F 84% 29.98 in 2.5 mi East 4.6 mph - N/A   Mist
10:05 AM -7.6 °F -16.5 °F -11.2 °F 84% 29.98 in 0.5 mi East 3.5 mph - N/A   Haze
10:39 AM -2.2 °F - -5.8 °F 85% 29.97 in 3.0 mi Calm Calm - N/A   Scattered Clouds
10:53 AM -2.0 °F - -7.1 °F 79% 29.98 in 5.0 mi Calm Calm - N/A   Haze
11:53 AM 1.0 °F - -5.1 °F 75% 29.96 in 6.0 mi Calm Calm - N/A   Haze
12:53 PM 1.9 °F - -2.9 °F 80% 29.93 in 10.0 mi Calm Calm - 0.00 in   Scattered Clouds
1:53 PM 3.0 °F -6.4 °F -2.9 °F 76% 29.89 in 10.0 mi North 4.6 mph - N/A   Scattered Clouds
2:53 PM 1.9 °F - -4.0 °F 76% 29.84 in 10.0 mi Calm Calm - N/A   Clear
3:53 PM -0.0 °F -9.9 °F -6.0 °F 76% 29.81 in 10.0 mi NE 4.6 mph - N/A   Mostly Cloudy
5:53 PM -0.9 °F -11.0 °F -6.0 °F 79% 29.75 in 10.0 mi NNE 4.6 mph - N/A   Clear
6:53 PM 1.0 °F -10.3 °F -4.0 °F 79% 29.73 in 10.0 mi NE 5.8 mph - N/A   Clear
7:46 PM -2.2 °F - -5.8 °F 85% 29.69 in 10.0 mi Calm Calm - N/A   Partly Cloudy
8:53 PM -0.0 °F -9.9 °F -5.1 °F 79% 29.68 in 10.0 mi NNE 4.6 mph - N/A   Clear
9:53 PM 1.0 °F - -2.9 °F 83% 29.65 in 10.0 mi Calm Calm - N/A   Scattered Clouds
9:58 PM 1.4 °F -6.2 °F -2.2 °F 85% 29.63 in 10.0 mi East 3.5 mph - N/A   Scattered Clouds
10:53 PM 1.9 °F -5.6 °F -2.9 °F 80% 29.63 in 10.0 mi North 3.5 mph - N/A   Mostly Cloudy
11:53 PM 1.9 °F -5.6 °F -2.9 °F 80% 29.60 in 10.0 mi East 3.5 mph - N/A   Scattered Clouds